Location: Arthurs Seat
(13.1500°N, 59.6000°W)
Time: 15:35:49
(UTC+00:00)

Cosmos 1315 Rocket - Pass Details

Date: 25 August 2019
Orbit: 529 x 570 km, 81.2° (Epoch: 23 October)

Event Time Altitude Azimuth Distance (km) Brightness Sun altitude
Rises 22:54:05 0° 355° (N) 2,760 6.7 -10.4°
Reaches altitude 10° 22:56:16 10° 355° (N) 1,861 5.8 -10.9°
Maximum altitude 23:00:23 86° 82° (E) 569 2.8 -11.9°
Drops below altitude 10° 23:04:28 10° 174° (S) 1,845 5.3 -12.8°
Sets 23:06:37 0° 174° (S) 2,734 6.2 -13.3°
